Location: Home
(42.5358°N, 72.7383°W)
Time: 04:04:41
(UTC-04:00)

Explorer 11/Cluster Stage 4 - Pass Details

Date: 24 April 2025
Orbit: 463 x 1190 km, 28.8° (Epoch: 11 May)

Event Time Altitude Azimuth Distance (km) Brightness Sun altitude
Rises 03:52:29 0° 220° (SW) 3,969 - -20.4°
Reaches altitude 10° 03:56:35 10° 201° (SSW) 2,909 - -19.8°
Exits shadow 03:59:18 15° 179° (S) 2,448 8.7 -19.4°
Maximum altitude 04:00:43 16° 166° (SSE) 2,345 8.7 -19.2°
Drops below altitude 10° 04:04:31 10° 129° (SE) 2,630 9.4 -18.7°
Sets 04:07:56 0° 109° (ESE) 3,420 10.3 -18.2°
